RH
72 80 81 76 73 79 76 74 75 78 81 86 85 75 68 65 57 56 60 63 61 56 54 46 49 51 31 20 33 45 48 39 41 48 47 46 45 46 41 42 40 39 37 34 32 32 35
78 77 78 92 97 86 85 84 86 85 78 95 99 81 74 78 78 73 75 75 74 66 59 50 51 52 46 47 47 49 46 45 38 39 40 42 43 41 40 41 45 43 43 38 32 30 30
79 95 82 97 100 96 100 94 96 98 96 100 96 92 86 78 79 78 76 83 73 69 58 50 55 52 55 59 59 49 38 35 37 40 37 43 38 35 40 40 38 50 46 43 41 39 36
96 83 96 85 98 96 98 98 96 97 97 98 100 92 90 78 84 86 81 71 70 68 58 52 57 56 57 61 58 46 37 33 29 26 31 39 38 37 30 26 35 43 48 48 47 43 40
83 96 95 96 95 95 95 94 98 96 98 98 100 98 92 87 94 91 81 78 73 65 64 57 62 58 63 63 62 59 51 41 35 33 33 31 27 31 29 30 26 31 37 41 41 48 41
80 80 75 93 90 97 99 94 97 95 98 97 99 96 98 93 91 91 86 80 83 74 64 67 69 56 57 55 59 62 62 54 47 42 39 36 33 30 33 30 29 27 25 23 26 32 31
57 64 61 58 67 88 88 96 98 88 96 97 96 97 95 93 99 91 98 98 76 69 76 79 70 72 61 64 63 66 57 59 58 55 50 46 37 43 43 40 36 32 34 31 31 34 37
33 37 33 43 57 47 48 58 85 87 97 97 96 98 97 97 94 97 97 99 95 81 75 84 81 66 80 70 65 71 65 63 56 58 55 53 42 48 45 44 42 41 40 39 37 36 39
9 9 10 15 20 24 34 53 52 54 74 93 98 97 98 96 96 97 96 99 90 97 85 69 81 79 92 71 58 74 65 67 64 57 60 49 50 52 49 46 45 44 45 44 43 42 42
11 9 11 12 13 13 15 17 21 23 50 68 84 98 98 96 99 97 99 95 97 94 79 65 90 74 80 75 60 72 70 66 61 58 62 54 56 56 50 44 45 43 44 41 39 38 35
18 19 20 21 22 22 19 18 16 19 24 28 36 57 82 74 79 96 100 97 95 96 87 81 69 78 74 70 58 62 71 64 57 62 63 55 54 53 49 46 44 42 42 42 43 44 45
37 38 38 38 38 34 25 24 20 20 51 42 56 44 43 49 52 93 100 99 94 95 73 90 76 81 75 72 66 60 69 68 66 65 65 60 60 56 52 50 52 52 51 51 51 48 46
55 54 53 50 44 42 38 28 24 17 17 29 34 56 56 43 78 85 89 98 96 84 86 84 77 79 83 81 71 67 72 74 74 72 69 64 60 59 60 62 61 59 56 51 47 41 39
70 66 61 57 54 47 44 37 34 31 24 20 17 15 20 41 61 98 89 98 72 68 75 81 87 72 74 87 78 80 81 84 81 75 69 64 62 67 64 58 56 51 50 44 39 37 36
61 58 50 45 42 42 42 41 43 42 36 28 22 18 17 19 24 42 70 65 42 56 81 91 99 74 68 86 76 82 89 89 90 82 73 69 70 69 64 57 50 47 53 40 34 31 27
42 40 41 40 37 32 29 28 28 25 24 24 25 27 26 21 26 50 68 25 27 57 67 100 89 84 86 100 82 85 84 83 83 81 68 67 64 69 59 52 45 41 36 32 28 27 24
52 47 44 40 38 35 31 27 23 23 22 23 22 23 24 30 38 70 41 29 47 84 77 100 97 100 86 100 98 98 90 90 85 85 87 82 74 61 61 51 38 31 31 23 22 38 56
57 51 47 43 38 37 33 29 26 32 93 67 65 56 47 54 41 40 30 38 74 100 84 100 100 100 100 100 100 99 95 96 90 83 83 83 73 66 53 28 18 15 23 10 13 14 20
58 57 51 47 47 44 42 42 40 51 99 79 96 94 87 78 64 43 47 75 98 100 91 92 100 100 97 100 100 99 100 100 93 85 75 70 56 46 44 30 20 16 16 14 14 17 14
67 63 54 47 45 45 43 43 48 68 100 100 100 99 86 70 59 59 72 96 100 100 95 89 100 100 100 100 100 92 100 100 100 85 76 67 25 27 43 25 11 14 22 14 12 11 19
63 56 48 41 40 39 33 36 36 58 99 100 100 98 100 84 80 91 98 100 100 100 99 100 100 100 100 98 100 91 100 99 98 95 75 44 45 30 27 20 19 17 11 10 13 12 26
45 43 38 35 32 30 32 28 26 32 82 100 100 100 99 100 100 100 92 73 100 100 98 100 100 100 100 93 100 100 97 85 81 78 54 37 39 20 35 16 12 12 9 10 12 22 26
42 38 34 31 29 26 25 24 21 19 56 100 100 100 100 100 100 100 92 100 100 100 96 94 98 100 98 98 90 80 84 86 62 42 64 47 22 17 30 13 14 15 16 21 26 24 41
41 37 35 31 27 24 22 21 19 15 21 82 100 100 100 96 96 89 100 100 100 100 100 100 100 97 100 77 81 92 95 98 94 79 20 23 10 5 9 11 12 14 23 37 23 24 47
46 40 34 29 27 24 21 21 20 17 48 59 100 100 99 100 99 100 100 100 100 100 93 100 100 100 87 75 85 94 97 91 56 21 23 6 5 9 14 23 20 23 48 45 31 29 71
40 33 28 25 24 25 27 26 21 19 15 23 100 100 100 100 94 100 98 89 88 93 100 96 100 94 98 93 97 98 92 68 38 7 5 8 23 34 38 30 22 43 58 36 31 33 80
24 18 16 16 18 20 21 26 25 21 22 51 100 100 100 100 100 97 75 80 86 95 94 100 100 96 91 97 97 85 35 8 7 6 15 26 49 50 80 62 40 36 48 39 44 78 74
34 43 55 46 23 12 16 20 25 20 15 78 98 100 100 100 100 99 78 78 81 92 92 100 100 98 85 66 46 16 7 6 6 24 55 49 87 100 98 73 39 71 83 68 63 92 98
100 100 100 100 99 32 12 17 21 20 15 94 100 100 100 100 81 81 90 96 100 87 95 100 99 100 96 54 20 9 8 12 45 73 86 90 91 93 73 69 45 59 88 99 93 85 94
Wind_Speed
39 38 36 35 35 35 34 34 32 33 35 37 36 40 41 39 37 38 36 36 31 28 31 32 30 27 28 25 19 19 15 13 17 20 20 19 20 21 21 19 18 18 24 23 22 18 25
44 42 37 35 41 37 35 35 35 36 36 38 38 36 36 38 37 37 35 33 33 29 30 32 30 27 26 25 17 16 17 16 15 18 24 24 23 24 23 21 22 23 19 24 22 20 22
48 44 43 39 32 39 37 40 41 40 38 39 40 39 40 34 30 27 29 33 32 31 28 32 31 29 25 26 21 18 18 18 21 18 19 23 24 23 22 25 26 23 24 24 22 26 26
54 52 51 48 47 44 45 41 42 42 42 39 37 38 40 39 33 31 29 32 34 34 33 33 33 30 26 30 27 22 20 20 21 24 22 22 25 25 26 28 29 25 26 25 25 31 30
55 55 56 56 55 56 53 52 44 38 42 43 41 41 44 42 38 35 35 34 35 37 40 35 35 34 30 28 28 28 26 24 23 25 24 24 26 24 26 28 30 29 27 29 29 31 38
53 56 55 56 57 60 59 60 57 54 50 48 44 47 52 52 50 48 38 39 40 40 40 36 36 39 36 33 30 31 32 30 28 26 27 28 28 27 26 30 31 30 35 34 31 33 37
52 52 49 51 56 57 60 61 54 64 63 60 61 55 54 55 56 53 46 42 45 47 45 42 43 39 42 39 37 34 35 33 34 31 30 31 33 30 30 33 37 39 35 32 31 37 40
55 52 51 52 53 51 54 55 63 65 61 60 58 58 51 49 55 57 51 44 49 51 51 50 48 47 46 49 42 39 41 35 37 35 37 34 35 33 36 37 39 39 40 36 34 35 43
53 52 50 50 52 52 54 57 57 56 64 63 59 61 66 63 63 67 63 62 62 60 63 56 54 54 53 54 52 42 47 43 41 42 38 41 37 38 38 39 39 41 41 42 44 43 43
62 61 60 59 58 58 57 59 59 61 62 64 67 67 65 65 56 64 67 65 64 64 67 67 64 64 60 58 57 48 49 48 45 39 37 40 36 38 42 45 42 43 43 46 49 47 47
68 68 66 65 64 64 65 64 64 66 65 65 69 71 75 68 70 70 73 60 51 50 59 65 67 62 61 59 59 53 42 44 44 39 40 40 39 38 43 43 46 48 49 49 48 48 49
69 70 69 68 68 67 67 67 68 70 70 73 74 75 73 70 71 69 66 65 64 57 57 53 56 54 55 53 52 54 47 43 41 42 42 40 40 43 42 44 47 49 50 51 48 48 52
70 70 70 69 69 69 69 69 69 72 73 77 78 79 79 75 72 72 77 73 68 61 53 53 52 50 50 49 48 48 46 41 40 39 40 43 43 43 45 48 51 50 47 47 47 45 47
66 67 67 69 69 69 70 71 70 71 74 76 78 79 79 79 77 74 71 61 75 67 58 51 51 54 49 47 45 39 41 39 38 38 41 44 44 42 44 46 46 45 41 38 39 43 45
61 62 62 62 63 65 66 67 68 69 70 73 74 75 76 73 72 65 61 60 70 66 55 46 44 54 50 48 42 41 39 37 36 40 43 43 43 40 42 43 45 45 33 33 39 40 42
59 59 60 59 60 61 62 63 63 63 65 66 69 71 71 68 64 59 57 64 61 55 52 43 45 47 46 44 45 42 38 40 39 40 43 42 40 36 39 41 41 37 33 34 31 36 37
54 53 53 55 54 53 53 52 55 50 56 60 65 66 64 63 58 55 61 59 50 48 46 45 44 45 47 43 40 42 42 40 42 40 39 42 40 38 35 38 35 35 36 37 35 32 34
49 49 48 49 49 49 48 47 47 50 47 50 54 57 58 58 59 57 55 51 44 48 47 46 47 47 41 38 37 39 39 42 42 41 40 36 39 40 34 30 31 31 31 29 32 35 36
52 52 51 51 51 52 52 52 50 49 50 50 46 48 50 56 56 54 49 47 48 48 49 46 45 47 44 43 43 42 40 38 40 40 40 33 35 36 36 32 29 32 32 34 37 37 37
53 53 52 51 51 52 53 53 52 45 35 40 39 44 40 43 45 48 47 48 50 51 50 51 49 50 45 44 44 43 38 36 36 38 40 35 30 33 33 31 32 31 30 32 36 39 43
54 52 51 50 51 50 52 52 51 50 55 36 32 45 39 36 38 44 48 46 47 49 50 51 50 49 43 41 42 38 34 38 38 37 37 35 34 31 27 33 36 33 32 33 39 42 45
51 51 50 49 49 49 52 53 53 54 56 68 36 37 35 34 39 43 44 42 41 42 48 48 49 45 42 39 33 35 38 40 40 32 28 29 32 32 32 35 35 34 34 37 37 41 44
52 51 52 52 51 52 54 56 55 54 55 50 47 30 39 34 38 39 41 41 38 39 37 38 38 37 38 33 36 40 37 31 27 26 29 30 31 33 26 32 33 31 32 36 37 37 33
53 54 52 51 51 51 54 57 58 54 57 58 52 37 39 38 35 36 38 38 37 33 30 34 35 34 35 35 35 32 28 28 31 30 26 29 33 35 29 35 35 34 39 34 36 35 28
53 54 53 52 51 50 54 58 57 54 51 59 43 48 40 34 33 34 29 31 33 32 30 34 39 44 42 40 33 26 27 28 25 27 29 32 33 33 34 38 36 40 29 30 29 23 25
58 58 56 54 53 52 53 56 54 51 52 56 46 39 40 34 30 30 29 31 32 31 33 36 41 42 36 33 28 29 29 27 25 26 28 29 29 33 36 37 35 23 18 22 25 20 23
60 60 60 61 60 57 55 54 53 49 52 54 46 40 35 25 24 28 29 27 28 30 27 26 26 28 26 26 25 26 23 23 24 24 26 27 26 23 21 23 23 14 20 20 19 19 20
44 42 40 42 52 64 61 57 53 50 52 52 33 33 32 26 23 20 23 25 24 26 22 22 26 26 25 23 24 22 23 22 24 21 23 23 18 23 21 20 16 11 17 19 19 24 16
33 35 37 39 40 53 66 59 55 51 49 51 36 40 29 23 24 22 21 20 25 24 23 20 22 18 23 23 22 23 22 20 19 18 14 17 18 21 21 20 21 17 19 20 19 21 21
Wind_Direction
250 252 254 257 259 259 259 261 262 263 263 266 266 265 264 265 266 268 270 272 272 275 282 277 271 264 263 261 267 270 281 278 278 286 289 286 285 283 278 268 270 253 258 268 272 267 257
254 254 251 257 263 259 260 263 264 265 264 270 269 266 267 264 264 268 270 268 271 270 276 275 272 265 261 265 266 269 281 282 273 278 285 288 290 290 281 277 266 269 264 261 269 265 262
253 251 249 248 247 256 254 263 260 261 260 270 271 267 264 263 259 264 272 275 271 265 265 266 264 260 262 264 268 269 275 283 284 276 278 284 285 287 285 284 281 271 269 274 281 276 270
252 250 251 248 244 248 247 255 258 254 258 266 265 269 265 258 256 264 267 272 272 265 260 257 261 258 259 265 271 275 275 278 279 280 275 273 279 285 289 284 277 275 277 272 271 272 272
258 257 251 248 249 252 254 256 251 248 261 258 257 257 260 259 259 266 274 279 279 268 260 257 259 264 262 269 278 279 279 280 277 278 277 277 277 278 281 284 283 279 271 270 266 268 279
261 260 261 260 251 251 253 257 259 251 253 265 254 262 267 268 267 267 263 274 279 273 261 263 262 269 271 272 272 278 282 283 281 279 281 279 278 278 277 278 278 275 279 283 282 277 276
269 267 264 266 262 263 255 258 258 259 256 263 262 272 268 263 268 271 270 272 274 274 268 259 267 271 278 280 280 282 280 282 284 284 283 279 280 282 274 272 276 280 279 285 284 282 282
270 268 266 267 264 267 269 271 260 258 265 265 265 269 254 266 262 266 264 262 269 273 271 264 263 271 276 281 280 282 281 281 281 285 284 278 280 278 274 277 277 278 281 276 269 267 273
261 261 261 260 261 263 265 264 265 265 267 270 270 269 269 273 267 268 264 263 266 270 272 266 265 268 274 277 282 282 278 280 281 281 281 280 278 277 277 274 273 277 278 277 275 270 271
264 264 262 261 259 260 259 262 264 267 268 264 269 271 269 273 270 268 271 275 276 273 270 271 266 267 272 275 279 277 278 280 278 278 274 274 277 275 278 281 280 276 275 276 277 279 284
263 262 260 260 260 260 260 259 257 261 261 261 266 267 271 278 279 271 267 263 269 273 274 270 272 273 273 275 278 280 276 277 280 275 271 278 275 272 274 279 278 279 278 278 280 279 278
261 261 261 260 259 257 256 258 258 253 252 256 257 260 264 264 272 266 260 262 264 278 276 279 274 279 280 281 280 279 276 273 271 269 271 274 270 273 271 270 272 274 276 278 279 279 279
261 260 259 258 256 257 256 254 254 253 255 256 256 257 260 261 259 263 272 274 282 275 277 284 286 284 279 278 277 276 272 268 265 265 266 267 268 266 269 271 274 274 275 277 276 277 279
256 256 255 255 255 255 255 254 254 254 255 257 259 261 262 261 262 265 270 268 276 279 284 285 279 280 288 279 271 267 265 262 261 260 261 263 264 267 266 268 269 272 274 277 280 277 278
255 255 254 254 255 255 254 254 254 255 256 256 258 260 263 264 266 268 267 267 275 278 276 271 268 280 280 275 272 263 258 256 253 253 258 260 264 268 272 276 275 274 281 282 282 286 285
254 255 256 257 258 259 261 261 260 260 259 257 257 258 259 262 264 261 260 269 269 266 264 252 261 266 265 263 268 263 259 258 256 258 262 264 265 270 272 270 270 278 280 279 280 283 279
259 258 258 260 261 261 261 262 265 256 254 251 252 254 256 259 258 253 261 267 263 253 253 245 246 247 250 251 255 256 256 256 257 257 261 269 271 268 264 271 280 281 283 285 280 274 280
249 252 252 252 254 252 252 250 252 254 257 251 257 255 255 254 254 255 257 260 253 246 247 243 239 243 246 252 248 247 255 256 255 259 263 264 268 270 271 266 265 272 275 272 274 275 272
245 243 245 245 244 244 243 242 244 244 243 259 253 255 249 248 247 251 251 247 242 244 245 239 242 243 247 251 246 245 251 257 266 265 267 268 267 267 266 270 269 265 268 270 268 275 283
243 242 243 243 242 243 241 241 240 238 227 236 248 247 248 251 249 245 243 242 245 246 245 244 243 245 251 253 253 252 254 253 261 264 265 267 262 268 276 279 274 270 271 266 269 276 280
243 243 245 245 243 242 243 238 235 229 225 229 244 252 245 256 252 250 244 246 249 249 247 247 248 251 255 253 252 256 252 259 258 254 260 269 274 273 269 269 272 271 269 265 269 278 278
244 246 245 243 242 242 241 237 237 229 235 239 233 245 254 254 252 250 248 248 252 253 251 249 251 253 248 255 253 255 254 254 255 263 266 264 268 269 272 273 272 271 269 268 277 279 280
245 246 245 244 240 237 234 236 234 228 227 238 226 248 260 249 249 249 249 250 254 247 246 252 255 251 254 249 249 254 258 258 260 260 261 263 266 268 262 273 272 277 277 277 277 280 283
248 247 245 243 240 235 232 231 231 227 227 233 232 243 256 247 244 246 248 247 247 248 248 251 249 258 262 261 252 248 250 251 253 255 255 262 272 277 273 275 274 285 280 284 279 276 272
249 248 248 245 241 234 230 230 228 225 222 223 224 232 243 246 239 240 244 247 247 252 250 252 259 261 260 257 248 249 246 244 243 246 256 263 270 274 273 275 280 281 290 276 279 282 267
253 252 249 244 240 234 228 228 225 223 223 221 211 219 237 238 230 237 241 248 256 258 254 259 250 253 248 255 249 245 238 240 243 248 260 265 267 272 278 277 277 291 281 271 275 266 285
259 255 250 243 235 232 225 223 220 216 214 216 213 220 212 207 225 235 246 251 245 247 250 241 226 229 234 232 232 228 229 244 250 261 268 267 273 274 277 286 294 284 258 261 261 267 264
246 239 233 228 224 220 221 216 213 209 209 207 195 218 211 207 218 232 241 250 246 231 229 232 228 235 231 219 225 236 240 250 254 262 267 265 263 269 266 281 293 281 261 271 270 274 273
217 216 213 215 216 213 210 209 206 203 205 207 201 219 211 211 223 233 238 233 237 228 229 219 216 222 229 232 233 236 243 247 252 248 252 257 262 269 266 273 275 285 291 293 267 292 284